Regional Weather Roundup
Issued by NWS

Home | Current Version | Previous Version | Text Only | Print | Product List | Glossary Off
Versions: 1 2 3 4 5 6 7 8 9 10 11 12 13 14 15 16 17 18 19 20 21 22 23 24 25 26 27 28 29 30 31 32 33 34 35 36 37 38 39 40 41 42 43 44 45 46 47 48 49 50

000
ASUS43 KOAX 170602
RWRNE

WEATHER ROUNDUP FOR NEBRASKA
NATIONAL WEATHER SERVICE OMAHA NE
100 AM CDT THU APR 17 2014

NOTES: SATELLITE DATA IS BEING USED TO AUGMENT CLOUD COVER ABOVE
       12000 FEET.
       "FAIR" INDICATES FEW OR NO CLOUDS BELOW 12,000 FEET WITH NO
       SIGNIFICANT WEATHER AND/OR OBSTRUCTIONS TO VISIBILITY.

  * THESE STATIONS DO NOT REPORT WEATHER SUCH AS RAIN...SNOW OR FOG.

NEZ001>004-019>022-054>056-170700-
NEBRASKA PANHANDLE

CITY           SKY/WX    TMP DP  RH WIND       PRES   REMARKS
SCOTTSBLUFF    CLOUDY    36  30  79 E12       30.15R WCI  28
6HR MIN TEMP:  33; 6HR MAX TEMP:  52; 6HR PCP: TRACE;

ALLIANCE       CLOUDY    32  27  81 SE5       30.17R WCI  27
6HR MIN TEMP:  30; 6HR MAX TEMP:  44;

CHADRON        CLOUDY    33  30  88 E3        30.17S
6HR MIN TEMP:  32; 6HR MAX TEMP:  46;

KIMBALL        PTCLDY    31  28  88 SE7       30.11R WCI  24
SIDNEY         CLOUDY    31  28  89 E10       30.14S WCI  22
6HR MIN TEMP:  30; 6HR MAX TEMP:  50;

$$

NEZ057>060-069>072-079>082-170700-
SOUTHWEST NEBRASKA

CITY           SKY/WX    TMP DP  RH WIND       PRES   REMARKS
NORTH PLATTE   CLOUDY    31  25  78 NE10      30.20R WCI  22
6HR MIN TEMP:  31; 6HR MAX TEMP:  45;

IMPERIAL       CLOUDY    34  29  82 NE9       30.17S WCI  27
6HR MIN TEMP:  32; 6HR MAX TEMP:  51;

LEXINGTON      CLOUDY    33  27  79 N13       30.21R WCI  24
MCCOOK         CLOUDY    33  28  81 NE8       30.19R WCI  26
6HR MIN TEMP:  33; 6HR MAX TEMP:  53;

OGALLALA       CLOUDY    33  28  80 CALM      30.19R
$$

NEZ005>010-023>029-035>040-094-170700-
NORTH CENTRAL NEBRASKA

CITY           SKY/WX    TMP DP  RH WIND       PRES   REMARKS
VALENTINE      CLOUDY    30  22  72 NE12      30.21S WCI  20
6HR MIN TEMP:  30; 6HR MAX TEMP:  32;

AINSWORTH      CLOUDY    30  24  77 N13       30.19R WCI  20
BROKEN BOW     CLOUDY    30  24  78 N14       30.19R WCI  19
6HR MIN TEMP:  30; 6HR MAX TEMP:  37;

O`NEILL        CLOUDY    31  23  72 N16       30.20R WCI  20
ORD            CLOUDY    30  23  75 N20       30.18R WCI  17
6HR MIN TEMP:  30; 6HR MAX TEMP:  35;

THEDFORD       CLOUDY    31  25  78 N10G16    30.19S WCI  23
$$

NEZ041-046>049-061>064-073>077-083>087-170700-
SOUTH CENTRAL NEBRASKA

CITY           SKY/WX    TMP DP  RH WIND       PRES   REMARKS
GRAND ISLAND   CLOUDY    33  24  69 N20       30.20R WCI  21
6HR MIN TEMP:  33; 6HR MAX TEMP:  41;

AURORA         CLOUDY    34  27  75 N18       30.18R WCI  23
HASTINGS       CLOUDY    34  26  72 N17       30.17R WCI  23
6HR MIN TEMP:  34; 6HR MAX TEMP:  45;

HEBRON         MOCLDY    35  28  74 N7        30.18R WCI  29
HOLDREGE       CLOUDY    33  27  77 N15G23    30.18R WCI  23
KEARNEY *      CLOUDY    34  25  69 N15       30.19S WCI  24
YORK           CLOUDY    32  27  80 N21G29    30.17R WCI  20
$$

NEZ011>018-030>034-042>045-170700-
NORTHEAST NEBRASKA

CITY           SKY/WX    TMP DP  RH WIND       PRES   REMARKS
NORFOLK        CLOUDY    32  24  72 N20G28    30.17R WCI  20
6HR MIN TEMP:  32; 6HR MAX TEMP:  37;

ALBION         CLOUDY    32  24  73 N12       30.18R WCI  23
BLAIR          CLOUDY    34  28  77 NW17      30.12R WCI  23
COLUMBUS *     CLOUDY    32  21  64 N16       30.18R WCI  21
FREMONT        CLOUDY    34  28  76 NW14G20   30.16R WCI  25
TEKAMAH        CLOUDY    35  27  72 NW18      30.14R WCI  24
6HR MIN TEMP:  35; 6HR MAX TEMP:  41;

$$

NEZ050>053-065>068-078-088>093-170700-
SOUTHEAST NEBRASKA

CITY           SKY/WX    TMP DP  RH WIND       PRES   REMARKS
LINCOLN        CLOUDY    37  25  61 N18       30.17R WCI  27
6HR MIN TEMP:  37; 6HR MAX TEMP:  47;

OMAHA EPPLEY   CLOUDY    36  28  73 NW17      30.13R WCI  26
6HR MIN TEMP:  36; 6HR MAX TEMP:  43;

BEATRICE       CLOUDY    37  27  69 N16       30.15R WCI  27
FALLS CITY     MOCLDY    38  30  73 NW12      30.13R WCI  30
6HR MIN TEMP:  38; 6HR MAX TEMP:  59;

NEBRASKA CITY  CLOUDY    37  29  75 NW15G24   30.13R WCI  27
PLATTSMOUTH    CLOUDY    36  27  71 NW22      30.12R WCI  24
$$

NEZ044-045-051>053-067-170700-
OMAHA AREA

CITY           SKY/WX    TMP DP  RH WIND       PRES   REMARKS
OMAHA EPPLEY   CLOUDY    36  28  73 NW17      30.13R WCI  26
6HR MIN TEMP:  36; 6HR MAX TEMP:  43;

BLAIR          CLOUDY    34  28  77 NW17      30.12R WCI  23
FREMONT        CLOUDY    34  28  76 NW14G20   30.16R WCI  25
MILLARD        CLOUDY    35  27  71 NW13G18   30.15R WCI  26
OFFUTT AFB     CLOUDY    36  29  75 NW13      30.13R WCI  28
PLATTSMOUTH    CLOUDY    36  27  71 NW22      30.12R WCI  24
WAHOO          CLOUDY    34  26  71 NW16G23   30.16R WCI  23
$$



USA.gov is the U.S. government's official web portal to all federal, state and local government web resources and services.